Weather Roundup
Issued by NWS Chicago, IL

Home | Current Version | Previous Version | Graphics & Text | Print | Product List | Glossary On
Versions: 1 2 3 4 5 6 7 8 9 10 11 12 13 14 15 16 17 18 19 20 21 22 23 24 25 26 27 28 29 30 31 32 33 34 35 36 37 38 39 40 41 42 43 44 45 46 47 48 49 50
000
NZUS59 KLOT 290606
HRRLOT

CHICAGO AREA WEATHER ROUNDUP
NATIONAL WEATHER SERVICE CHICAGO/ROMEOVILLE IL
1200 AM CST SAT NOV 29 2014

NOTE: "FAIR" INDICATES FEW OR NO CLOUDS BELOW 12,000 FEET WITH NO
SIGNIFICANT WEATHER AND/OR OBSTRUCTIONS TO VISIBILITY.

* THESE STATIONS ARE NOT UNDER NWS QUALITY CONTROL. THEY ALSO MAY NOT
  REPORT WEATHER SUCH AS PRECIPITATION OR FOG.

ILZ005-006-012>014-019>023-290700-
NORTHEAST ILLINOIS

CITY           SKY/WX    TMP DP  RH WIND       PRES   REMARKS
OHARE          PTCLDY    30  27  88 S8        29.87F WCI  22
6HR MIN TEMP:  30; 6HR MAX TEMP:  34;

MIDWAY         MOCLDY    35  28  75 S9        29.89F WCI  28
6HR MIN TEMP:  34; 6HR MAX TEMP:  36;

AURORA         CLEAR     30  26  85 SE7       29.87F FOG     WCI  23
6HR MIN TEMP:  30; 6HR MAX TEMP:  35;

LANSING*       PTCLDY    31  26  82 S7        29.91S WCI  24
JOLIET*        CLEAR     32  29  86 SE6       29.88F WCI  27
WAUKEGAN       MOCLDY    33  28  81 S5        29.86F WCI  29
6HR MIN TEMP:  31; 6HR MAX TEMP:  33; 6HR PCP: TRACE;

DUPAGE AIRPORT CLEAR     31  28  89 S9        29.86F WCI  23
6HR MIN TEMP:  31; 6HR MAX TEMP:  35;

WHEELING       PTCLDY    32  28  85 S9        29.89S WCI  24
6HR MIN TEMP:  32; 6HR MAX TEMP:  34;

KANKAKEE*      CLEAR     33  29  86 S10G18    29.89F WCI  25
MORRIS*        CLEAR     31  29  96 SE7       29.87F WCI  24
LEWIS AIRPORT* CLEAR     32  28  87 S9        29.87F WCI  24
NORTHERLY IS     N/A     34  27  76 S8          N/A  WCI  27
$$

WIZ051-052-058>065-066-070>072-290700-
SOUTHEAST WISCONSIN

CITY           SKY/WX    TMP DP  RH WIND       PRES   REMARKS
MILWAUKEE      CLOUDY    33  28  81 S7        29.85F WCI  27
6HR MIN TEMP:  30; 6HR MAX TEMP:  33; 6HR PCP:  0.01;

KENOSHA*       CLOUDY    33  29  85 S9        29.86F WCI  25
RACINE*        CLOUDY    35  29  78 S10       29.88F WCI  27
BURLINGTON     CLOUDY    28  27  94 CALM      29.84F FOG
WAUKESHA       CLOUDY    30  28  93 SE5       29.84F FOG     WCI  25
WEST BEND      CLOUDY    30  28  93 CALM      29.84F FOG
$$

INZ001>003-010>013-019-020-290700-
NORTHWEST INDIANA

CITY           SKY/WX    TMP DP  RH WIND       PRES   REMARKS
GARY*          PTCLDY    33  26  76 S8        29.91F WCI  26
6HR MIN TEMP:  33; 6HR MAX TEMP:  35;

MICHIGAN CITY* NOT AVBL
RENSSELAER*    NOT AVBL
VALPARAISO     PTCLDY    30  24  78 SE7       29.93F WCI  23
$$

LMZ740>746-290700-
SOUTHERN LAKE MICHIGAN

STATION/POSITION TIME  SKY/WX   TEMP WIND        PRES    VSBY
                                AIR  DIR/SP/G
                 (UTC)          (F)  (DEG/KT/KT) (MB)    (MI)
HARRISON CRIB    0600            34  180/ 19/ 22   N/A
BURNHAM HARBOR   0600            34  170/  4/ 10   N/A
CALUMET HARBOR   0600            33  170/  8/ 12 1011.4R
BURNS HARBOR     NOT AVBL
MICHIGAN CITY    0600            34  140/ 14/ 19   N/A
$$

ABBREVIATIONS USED IN REMARKS
   TC - TEMPERATURE IN CELSIUS
  WCI - WIND CHILL INDEX
   HX - HEAT INDEX
  VSB - VISIBILITY
$$


USA.gov is the U.S. government's official web portal to all federal, state and local government web resources and services.